Regional Weather Roundup
Issued by NWS

Home | Current Version | Previous Version | Text Only | Print | Product List | Glossary On
Versions: 1 2 3 4 5 6 7 8 9 10 11 12 13 14 15 16 17 18 19 20 21 22 23 24 25 26 27 28 29 30 31 32 33 34 35 36 37 38 39 40 41 42 43 44 45 46 47 48 49 50
000
ASUS44 KFWD 280715
RWRTX
NORTH TEXAS HOURLY WEATHER ROUNDUP
NATIONAL WEATHER SERVICE FORT WORTH TX
200 AM CDT THU JUL 28 2016

NOTE: "FAIR" INDICATES FEW OR NO CLOUDS BELOW 12,000 FEET WITH NO
SIGNIFICANT WEATHER AND/OR OBSTRUCTIONS TO VISIBILITY.

TXZ118-119-280800-
DALLAS/FORT WORTH METROPLEX

CITY           SKY/WX    TMP DP  RH WIND       PRES   REMARKS
DFW AIRPORT    CLOUDY    81  72  74 S7        29.92F
DALLAS LOVE    MOCLDY    83  73  72 S8        29.93S
FTW MEACHAM    PTCLDY    79  72  79 S5        29.93S
FTW-ALLIANCE   PTCLDY    78  71  79 SW6       29.93S
FTW-NAS-JRB    PTCLDY    79  72  79 S7        29.94S
FTW-SPINKS     CLOUDY    77  71  82 S3        29.95F
ARLINGTON      CLOUDY    80  72  76 S6        29.94S
GRAND PRAIRIE  CLOUDY    81  71  71 S6        29.95S
ADDISON        PTCLDY    81  75  83 S6        29.94F
MESQUITE       CLOUDY    79  74  87 S5        29.95R
LANCASTER      CLOUDY    80  74  84 CALM      29.95S
$$

TXZ091>094-102>105-117-120-121-131>134-280800-
NORTH CENTRAL TEXAS

CITY           SKY/WX    TMP DP  RH WIND       PRES   REMARKS
SHRMAN/DENISON CLEAR     77  74  89 SE10      29.94F
GAINESVILLE    CLEAR     74  73  94 CALM      29.94F
BOWIE          CLEAR     76  73  90 CALM      29.93F
BRIDGEPORT     CLEAR     74  74 100 S3        29.95F
DECATUR        CLEAR     77  73  88 S8        29.95F
DENTON         CLEAR     76  74  93 S3        29.92F
MCKINNEY       CLEAR     77  75  93 E5        29.94S
GREENVILLE     MOCLDY    75  70  83 S3        29.95F
ROCKWALL       MOCLDY    79  75  89 SE5       29.93S
TERRELL        MOCLDY    78  74  87 SE6       29.95S
WAXAHACHIE     CLOUDY    78  74  90 CALM      29.96S
CLEBURNE       CLOUDY    77  75  94 S7        29.97S
GRANBURY       MOCLDY    78  70  75 CALM      29.96F
$$

TXZ083>090-098>101-113>116-127>130-139>142-154-155-280800-
WESTERN NORTH TEXAS

CITY           SKY/WX    TMP DP  RH WIND       PRES   REMARKS
WICHITA FALLS  PTCLDY    77  71  82 E6        29.93F
WF-KICKAPOO    PTCLDY    79  70  74 E10       29.94F
VERNON         PTCLDY    79  65  63 S3        29.95F
ABILENE        CLEAR     75  69  81 S8        29.98F
ABILENE-DYESS  CLEAR     74  70  86 S6        29.97F
CISCO          CLEAR     75  70  83 SW10      29.99S
BRECKENRIDGE   CLEAR     76  69  78 SW3       29.96S
GRAHAM         PTCLDY    73  71  92 CALM      29.95S
MINERAL WELLS  PTCLDY    73  71  93 S6        29.94F
STEPHENVILLE   CLOUDY    73  68  86 CALM      29.99F
COMANCHE       PTCLDY    74  74 100 CALM      29.98F
BROWNWOOD      MOCLDY    75  72  88 CALM      29.99S
COLEMAN        MOCLDY    75  71  87 SW3       30.00F
$$

TXZ143>147-156>162-174-175-280800-
CENTRAL TEXAS

CITY           SKY/WX    TMP DP  RH WIND       PRES   REMARKS
WACO           CLOUDY    78  70  76 SW7       29.96S
WACO-MCGREGOR  CLOUDY    76  73  91 S6          N/A
HILLSBORO      CLOUDY    77  72  82 S8        29.95F
CORSICANA      CLOUDY    78  73  84 S5        29.97R
MEXIA          MOCLDY    75  74  96 S8        29.96R
HEARNE         CLEAR     74  72  92 CALM      29.97S
CAMERON        CLEAR     76  71  85 S5        29.96F
TEMPLE         MOCLDY    78  71  79 S8        29.98R
KILLEEN        CLOUDY    75  70  84 S3        29.98R
KILLEEN-SKYLRK PTCLDY    78  71  79 S9        29.98R
FORT HOOD      PTCLDY    77  70  78 S6        29.96R
GATESVILLE     MOCLDY    79  72  78 CALM      30.00S
HAMILTON       CLOUDY    74  74 100 S7        29.99F
$$

TXZ095>097-106>112-122>126-135>138-148>153-164>167-280800-
EAST TEXAS

CITY           SKY/WX    TMP DP  RH WIND       PRES   REMARKS
PARIS          CLOUDY    73  64  73 S6        29.94F
SULPHUR SPRNGS PTCLDY    76  73  91 S5        29.96F
MOUNT PLEASANT CLOUDY    72  72  98 CALM      29.96S
GILMER         CLOUDY    73  71  93 CALM      29.95S
MINEOLA        PTCLDY    77  73  88 S5        29.95F
TYLER          CLOUDY    77  73  87 S9        29.95F
LONGVIEW       LGT RAIN  75  74  96 S9        29.94F
MARSHALL       CLOUDY    73  70  92 S3        29.97S
ATHENS         CLOUDY    77  75  94 S3        29.94F
PALESTINE      CLOUDY    78  76  93 S5        29.98S
JACKSONVILLE     N/A     77  75  95 S5        30.00S
HENDERSON      CLOUDY    76  74  92 CALM      29.97S
CENTER         CLOUDY    79  77  95 CALM      29.98S
NACOGDOCHES    MOCLDY   N/A N/A N/A SE3       29.96R
LUFKIN         PTCLDY    77  76  96 S5        29.96S
$$

SUPPLEMENTAL OBSERVATIONS (CENTRAL)

CITY           SKY/WX    TMP DP  RH WIND       PRES   REMARKS
DENISON DAM      N/A     75  70  83 E1          N/A
CADDO GRASSLND   N/A     79  72  78 S8          N/A
PAT MAYSE LAKE   N/A     75  73  94 SE6         N/A
GREENVILLE       N/A     75  68  78 S5          N/A
CEDAR HILL       N/A     77  72  83 S2          N/A
ATHENS           N/A     79  75  89 S6          N/A
LAKE LIMESTONE   N/A     75  72  88 S3          N/A
MCGREGOR         N/A     75  72  88 SW1         N/A
TEMPLE           N/A     75  68  78 SE7         N/A
$$

SUPPLEMENTAL OBSERVATIONS (WEST)

CITY           SKY/WX    TMP DP  RH WIND       PRES   REMARKS
MILLERS CREEK    N/A     79  68  69 SW6         N/A
POSSUM KINGDOM   N/A     75  70  83 S5          N/A
LBJ GRASSLAND    N/A     75  73  94 CALM        N/A
GRANBURY         N/A     77  70  78 CALM        N/A
COMANCHE         N/A     73  70  88 S6          N/A
HAMBY            N/A     75  68  78 S5          N/A
IVIE RESERVOIR   N/A     75  70  83 E3          N/A
COLORADO BEND    N/A     75  72  88 SE1         N/A
$$

SUPPLEMENTAL OBSERVATIONS (EAST)

CITY           SKY/WX    TMP DP  RH WIND       PRES   REMARKS
CLARKSVILLE      N/A     73  72  94 S2          N/A
TEXARKANA        N/A     73  72  94 CALM        N/A
LINDEN           N/A     73  70  88 CALM        N/A
CADDO LAKE       N/A     73  68  83 CALM        N/A
GILMER           N/A     73  72  94 S1          N/A
HENDERSON        N/A     77  73  88 S5          N/A
LUFKIN           N/A     79  77  94 MISG        N/A
N SABINE NF      N/A     75  72  88 MISG        N/A
S SABINE NF      N/A     75  72  88 SW1         N/A
$$

SUPPLEMENTAL OBSERVATIONS ARE A COLLECTION OF AUTOMATED INSTRUMENTS
THAT ARE MAINTAINED BY A VARIETY OF FEDERAL AND STATE AGENCIES.
CERTAIN ELEMENTS...SUCH AS HUMIDITY VALUES AND SUSTAINED WIND
SPEEDS...MAY BE APPROXIMATED.





USA.gov is the U.S. government's official web portal to all federal, state and local government web resources and services.